Other Surface Observations
Issued by NWS Tucson, AZ

Home | Current Version | Previous Version | Text Only | Print | Product List | Glossary On
Versions: 1 2 3 4 5 6 7 8 9 10 11 12 13 14 15 16 17 18 19 20 21 22 23 24 25 26 27 28 29 30 31 32 33 34 35 36 37 38 39 40 41 42 43 44 45 46 47 48 49 50
000
SXUS55 KTWC 242345
OSOTWC

WEATHER ROUNDUP FOR SOUTHEAST ARIZONA
NATIONAL WEATHER SERVICE TUCSON AZ
445 PM MST TUE APR 24 2018

AZZ504>506-514-250045-
LOCATION       SKY/WX    TMP DP  RH WIND       PRES   REMARKS
TUCSON         MOSUNNY   94  17   6 MISG      29.93F
DAVIS-MONTHAN  NOT AVBL
CHILDRENS PARK N/A      N/A N/A   6 SW4               PIMA CO DEQ
ALVERNON/22ND  N/A       92 N/A N/A W4                PIMA CO DEQ
CHERRY/GLENN   N/A      N/A N/A N/A N/A               PIMA CO DEQ
TANGERINE      N/A       93 N/A N/A W2                PIMA CO DEQ
CONTL RANCH    N/A       94  17   6 NW6               PIMA CO DEQ
GRANT/1ST      N/A       93  20   7 SE5               PIMA CO DEQ
CRAYCROFT/22ND N/A       93  20   7 NW7               PIMA CO DEQ
GOLFLINKS/KOLB N/A      N/A N/A N/A N/A               PIMA CO DEQ
AJO/12TH       N/A       93  23   8 W7                PIMA CO DEQ
FAIRGROUNDS    N/A       91 N/A N/A NW9               PIMA CO DEQ
SAGUARO        N/A       95  14   5 W6G16             *SABINO CYN
SAN CARLOS     N/A       94  14   5 NW5G13            *SAN CARLOS
GREEN VALLEY   N/A       93  20   7 S3                PIMA CO DEQ
HORSE CAMP CYN N/A       87  16   7 W12G24            *ARAVAIPA CYN
RINCON MTNS    N/A       70  17  13 W3G10             *NR MANNING CAMP
$$

AZZ509>511-250045-
LOCATION       SKY/WX    TMP DP  RH WIND       PRES   REMARKS
SAFFORD        SUNNY     91  10   5 CALM      29.91F
STRAY HORSE    N/A       71   4   7 SW10G20           *
TRAIL CABIN    N/A       79  10   7 SW5G16            *N OF GRANVILLE
BLACK HILLS    N/A       92  12   5 W6G19             *N OF FT THOMAS
DRY LAKE       N/A       75  10   8 W6G14             *NATANES MTNS
NOON CREEK     N/A       84  19   9 E7G14             *PINALENO MTNS
COLUMBINE      N/A       63  13  14 SW7G15            *PINALENO MTNS
GUTHRIE        N/A       77  14   9 SW14G25           *SW OF GUTHRIE
$$

AZZ502-503-513-250045-
LOCATION       SKY/WX    TMP DP  RH WIND       PRES   REMARKS
NOGALES        CLOUDY    85  20   9 SW12G20   30.04S
SELLS          N/A       92   7   4 NE8G17            *
SASABE         N/A       88  13   6 SW12G17           *ALTAR VLY
HOPKINS        N/A       76  20  12 NW8G15            *SANTA RITA MTNS
CARR CYN       N/A       81  20  10 SW3G11            *W OF HEREFORD
$$

AZZ507-508-512-250045-
LOCATION       SKY/WX    TMP DP  RH WIND       PRES   REMARKS
SIERRA VISTA   CLOUDY    83  16   8 SW17G23   30.07
DOUGLAS        PTSUNNY   87  12   6 W9        30.01F
EMPIRE MTNS    N/A       83  16   8 W8G17             *LAS CIENEGAS NCA
MULESHOE RANCH N/A       88  13   6 W9G19             *PRESERVE
HEADQUARTERS   N/A       83  16   8 W5G16             *CHIRICAHUA MTNS
$$

.............................NOTES.............................
THIS IS AN AUTOMATED COLLECTIVE WITH MINIMAL QUALITY CONTROL.
PIMA CO DEQ SITES HAVE NONSTANDARD WIND SENSOR HEIGHTS.
PIMA CO DEQ SITES DO NOT REPORT WIND GUSTS.
* INDICATES WIND SENSORS LOCATED AT 20 FEET INSTEAD OF 33 FEET.
..............................KEY..............................
SKY/WX - SKY CONDITION/WEATHER
TMP    - TEMPERATURE IN FAHRENHEIT
DP     - DEWPOINT IN FAHRENHEIT
RH     - RELATIVE HUMIDITY IN PERCENT
WIND   - DIRECTION AND SPEED IN MILES PER HOUR (MPH)
VRB    - VARIABLE WIND DIRECTION
PRES   - MEAN SEA LEVEL PRESSURE IN INCHES OF MERCURY
         F - FALLING PRESSURE   R - RISING PRESSURE
         S - STEADY PRESSURE
VSB    - VISIBILITY IN MILES
HX     - HEAT INDEX IN FAHRENHEIT
WCI    - WIND CHILL INDEX IN FAHRENHEIT
N/A    - NOT AVAILABLE
AFB    - AIR FORCE BASE
         DAVIS-MONTHAN IS DAVIS-MONTHAN AIR FORCE BASE
CYN    - CANYON
MTNS   - MOUNTAINS
NCA    - NATIONAL CONSERVATION AREA
NR     - NEAR
VLY    - VALLEY
CONTL  - CONTINENTAL
PIMA CO DEQ - PIMA COUNTY DEPT OF ENVIRONMENTAL QUALITY



USA.gov is the U.S. government's official web portal to all federal, state and local government web resources and services.